San Diego Montgomery, CA

6:56 PM PDT on April 28, 2017 (GMT -0700)
Montgomery

Weather History for KMYF - August, 2014

Change the Weather History Date:

Thursday, August 7, 2014

  Actual Average Record
Temperature  
Mean Temperature 70 °F 73 °F  
Max Temperature 77 °F 80 °F 86 °F (2008)
Min Temperature 64 °F 65 °F 61 °F (2010)
Degree Days  
Heating Degree Days 0 0  
Month to date heating degree days 0  
Since 1 June heating degree days 20  
Since 1 July heating degree days 1  
Cooling Degree Days 4 8  
Month to date cooling degree days 54  
Year to date cooling degree days 365  
Since 1 June cooling degree days 314  
Growing Degree Days 20 (Base 50)    
Moisture  
Dew Point 58 °F    
Average Humidity 68    
Maximum Humidity 83    
Minimum Humidity 50    
Precipitation  
Precipitation 0.00 in 0.00 in 0.00 in (2017)
Month to date precipitation 0.00  
Year to date precipitation 8.41  
Sea Level Pressure  
Sea Level Pressure 29.96 in    
Wind  
Wind Speed 4 mph (WNW)    
Max Wind Speed 12 mph    
Max Gust Speed 20 mph    
Visibility 10 miles    
Events      
T = Trace of Precipitation, MM = Missing Value Source: NWS Daily Summary

Daily Weather History Graph

Daily Weather History Graph

Search for Another Location

Airport or City:

Trip Planner

Search our weather history database for the weather conditions in past years. The results will help you decide how hot, cold, wet, or windy it might be!

Date:

Astronomy

Aug. 07, 2014 Rise Set
Actual Time 6:06 AM PDT 7:41 PM PDT
Civil Twilight 5:39 AM PDT 8:08 PM PDT
Nautical Twilight 5:08 AM PDT 8:39 PM PDT
Astronomical Twilight 4:34 AM PDT 9:13 PM PDT
Moon 5:00 PM PDT (8/7) 2:43 AM PDT (8/7)
Length of Visible Light 14h 28m
Length of Day
13h 35m
Waxing Gibbous, 87% of the Moon is Illuminated
Aug 7
Waxing Gibbous
Aug 10
Full
Aug 17
Last Quarter
Aug 25
New
Sep 2
First Quarter

Hourly Weather History & Observations

Time (PDT) Temp. Dew Point Humidity Pressure Visibility Wind Dir Wind Speed Gust Speed Precip Events Conditions
12:53 AM 66.0 °F 59.0 °F 78% 29.99 in 10.0 mi North 3.5 mph - N/A   Clear
1:53 AM 64.0 °F 57.9 °F 80% 29.99 in 10.0 mi Calm Calm - N/A   Clear
2:46 AM 64.4 °F 59.0 °F 83% 30.00 in 10.0 mi Calm Calm - N/A   Mostly Cloudy
2:53 AM 64.9 °F 59.0 °F 81% 29.99 in 10.0 mi Calm Calm - N/A   Mostly Cloudy
3:53 AM 66.0 °F 59.0 °F 78% 29.98 in 10.0 mi Calm Calm - N/A   Overcast
4:53 AM 66.9 °F 57.9 °F 73% 29.98 in 10.0 mi NNW 3.5 mph - N/A   Overcast
5:53 AM 66.9 °F 57.0 °F 70% 29.98 in 10.0 mi NNE 5.8 mph - N/A   Overcast
6:53 AM 66.9 °F 57.0 °F 70% 29.99 in 10.0 mi NNE 4.6 mph - N/A   Overcast
7:53 AM 68.0 °F 55.9 °F 65% 29.99 in 10.0 mi ENE 5.8 mph - N/A   Overcast
8:38 AM 68.0 °F 55.4 °F 64% 30.00 in 10.0 mi North 3.5 mph - N/A   Partly Cloudy
8:45 AM 68.0 °F 55.4 °F 64% 30.00 in 10.0 mi Calm Calm - N/A   Mostly Cloudy
8:53 AM 68.0 °F 55.9 °F 65% 29.99 in 10.0 mi Calm Calm - N/A   Scattered Clouds
9:53 AM 73.0 °F 55.0 °F 53% 29.98 in 10.0 mi Variable 4.6 mph - N/A   Partly Cloudy
10:53 AM 75.9 °F 55.9 °F 50% 29.98 in 10.0 mi Variable 5.8 mph - N/A   Clear
11:53 AM 75.9 °F 57.0 °F 52% 29.96 in 10.0 mi WSW 10.4 mph - N/A   Clear
12:53 PM 75.9 °F 57.0 °F 52% 29.96 in 10.0 mi WSW 10.4 mph 18.4 mph N/A   Clear
1:53 PM 75.9 °F 57.9 °F 54% 29.94 in 10.0 mi WSW 9.2 mph - N/A   Clear
2:53 PM 75.9 °F 57.9 °F 54% 29.93 in 10.0 mi West 11.5 mph 19.6 mph N/A   Clear
3:53 PM 75.9 °F 57.9 °F 54% 29.92 in 10.0 mi WSW 11.5 mph - N/A   Clear
4:53 PM 73.9 °F 59.0 °F 59% 29.91 in 10.0 mi WNW 10.4 mph - N/A   Clear
5:53 PM 73.0 °F 59.0 °F 61% 29.91 in 10.0 mi WNW 6.9 mph 16.1 mph N/A   Clear
6:53 PM 71.1 °F 60.1 °F 68% 29.91 in 10.0 mi WNW 6.9 mph - N/A   Partly Cloudy
7:50 PM 69.8 °F 60.8 °F 73% 29.93 in 10.0 mi West 5.8 mph - N/A   Mostly Cloudy
7:53 PM 70.0 °F 60.1 °F 71% 29.92 in 10.0 mi Variable 5.8 mph - N/A   Partly Cloudy
8:02 PM 69.8 °F 60.8 °F 73% 29.93 in 10.0 mi NW 5.8 mph - N/A   Partly Cloudy
8:53 PM 69.1 °F 60.1 °F 73% 29.94 in 10.0 mi West 4.6 mph - N/A   Partly Cloudy
9:53 PM 68.0 °F 60.1 °F 76% 29.95 in 10.0 mi WSW 3.5 mph - N/A   Clear
10:40 PM 68.0 °F 60.8 °F 78% 29.97 in 10.0 mi WSW 3.5 mph - N/A   Mostly Cloudy
10:53 PM 68.0 °F 60.1 °F 76% 29.95 in 10.0 mi Calm Calm - N/A   Mostly Cloudy
11:30 PM 68.0 °F 60.8 °F 78% 29.96 in 10.0 mi Calm Calm - N/A   Scattered Clouds
11:53 PM 69.1 °F 60.1 °F 73% 29.94 in 10.0 mi Calm Calm - N/A   Scattered Clouds